Weather History for Metropolis, IL

Change the Weather History Date:

Tuesday, April 8, 2014

  Actual Average (KPAH) Record (KPAH)
Temperature  
Mean Temperature 50 °F 56 °F  
Max Temperature 56 °F 67 °F 85 °F (1978)
Min Temperature 43 °F 44 °F 21 °F (2007)
Degree Days  
Heating Degree Days 16 10  
Month to date heating degree days 89  
Since 1 July heating degree days 3908  
Cooling Degree Days 0 1  
Month to date cooling degree days 8  
Year to date cooling degree days 15  
Moisture  
Dew Point 42 °F    
Average Humidity 77    
Maximum Humidity 96    
Minimum Humidity 51    
Precipitation  
Precipitation 0.04 in 0.15 in 1.73 in (1979)
Month to date precipitation 1.16  
Year to date precipitation 12.68  
Snow  
Snow 0.00 in 0.00 in T in (1982)
Month to date snowfall 0.0  
Since 1 July snowfall 9.1  
Snow Depth -    
Sea Level Pressure  
Sea Level Pressure 29.83 in    
Wind  
Wind Speed 5 mph (WSW)    
Max Wind Speed 10 mph    
Max Gust Speed 22 mph    
Visibility 10 miles    
Events Rain , Thunderstorm    
T = Trace of Precipitation, MM = Missing Value Source: NWS Daily Summary

Daily Weather History Graph

Daily Weather History Graph

Search for Another Location

Airport:

Trip Planner

Search our weather history database for the weather conditions in past years. The results will help you decide how hot, cold, wet, or windy it might be!

Date:

Astronomy

Apr. 08, 2014 Rise Set
Actual Time 6:30 AM CDT 7:23 PM CDT
Civil Twilight 6:03 AM CDT 7:50 PM CDT
Nautical Twilight 5:32 AM CDT 8:21 PM CDT
Astronomical Twilight 5:00 AM CDT 8:54 PM CDT
Moon 1:24 PM CDT (4/8) 2:35 AM CDT (4/8)
Length of Visible Light 13h 46m
Length of Day
12h 53m
Waxing Gibbous, 63% of the Moon is Illuminated
Apr 8
Waxing Gibbous
Apr 15
Full
Apr 22
Last Quarter
Apr 29
New
May 6
First Quarter

Hourly Weather History & Observations

Time (CDT) Temp. Windchill Dew Point Humidity Pressure Visibility Wind Dir Wind Speed Gust Speed Precip Events Conditions
12:15 AM 45.0 °F 42.6 °F 39.9 °F 82% 29.82 in 10.0 mi SW 4.6 mph - N/A   Scattered Clouds
12:35 AM 44.6 °F 43.1 °F 39.7 °F 83% 29.82 in 10.0 mi SW 3.5 mph - N/A   Scattered Clouds
1:15 AM 44.6 °F 42.2 °F 40.1 °F 84% 29.81 in 10.0 mi WSW 4.6 mph - N/A   Scattered Clouds
1:35 AM 44.6 °F 42.2 °F 40.1 °F 84% 29.80 in 10.0 mi SW 4.6 mph - N/A   Mostly Cloudy
1:55 AM 44.1 °F 41.5 °F 39.9 °F 85% 29.80 in 10.0 mi SW 4.6 mph - N/A   Scattered Clouds
2:15 AM 44.2 °F 41.8 °F 40.5 °F 87% 29.79 in 10.0 mi SW 4.6 mph - N/A   Mostly Cloudy
2:35 AM 44.2 °F 41.0 °F 40.5 °F 87% 29.79 in 10.0 mi SW 5.8 mph - N/A   Mostly Cloudy
2:55 AM 44.1 °F 41.5 °F 41.0 °F 89% 29.78 in 10.0 mi SW 4.6 mph - N/A   Mostly Cloudy
3:15 AM 43.7 °F 40.3 °F 41.4 °F 91% 29.78 in 10.0 mi SSW 5.8 mph - N/A   Scattered Clouds
3:35 AM 43.3 °F 39.9 °F 41.4 °F 93% 29.78 in 7.0 mi SW 5.8 mph - N/A   Clear
3:55 AM 43.9 °F 39.9 °F 41.2 °F 90% 29.78 in 10.0 mi SW 6.9 mph - N/A   Clear
4:15 AM 43.2 °F 39.7 °F 41.0 °F 92% 29.78 in 10.0 mi SW 5.8 mph - N/A   Scattered Clouds
4:35 AM 43.5 °F 40.1 °F 41.7 °F 93% 29.78 in 10.0 mi SW 5.8 mph - N/A   Mostly Cloudy
4:55 AM 44.2 °F 41.8 °F 42.1 °F 92% 29.77 in 10.0 mi SW 4.6 mph - N/A   Overcast
5:15 AM 44.6 °F 43.1 °F 42.1 °F 91% 29.78 in 10.0 mi SW 3.5 mph - N/A   Overcast
5:35 AM 45.0 °F - 41.9 °F 89% 29.78 in 10.0 mi Calm Calm - N/A   Overcast
5:55 AM 45.5 °F 42.5 °F 41.9 °F 87% 29.79 in 10.0 mi WSW 5.8 mph - N/A   Overcast
6:15 AM 45.9 °F 42.3 °F 41.9 °F 86% 29.79 in 10.0 mi WSW 6.9 mph - N/A   Overcast
6:35 AM 45.5 °F 43.2 °F 41.9 °F 87% 29.79 in 10.0 mi WSW 4.6 mph - N/A   Mostly Cloudy
6:55 AM 45.1 °F 42.8 °F 42.3 °F 90% 29.79 in 10.0 mi SW 4.6 mph - N/A   Scattered Clouds
7:15 AM 45.3 °F 44.0 °F 42.8 °F 91% 29.79 in 10.0 mi SW 3.5 mph - N/A   Clear
7:35 AM 46.0 °F 43.9 °F 42.4 °F 87% 29.80 in 10.0 mi SW 4.6 mph - N/A   Clear
7:55 AM 46.4 °F 43.5 °F 42.6 °F 87% 29.80 in 10.0 mi SW 5.8 mph - N/A   Clear
8:15 AM 47.5 °F - 42.6 °F 83% 29.80 in 10.0 mi WSW 4.6 mph - N/A   Scattered Clouds
8:35 AM 48.9 °F - 42.4 °F 78% 29.80 in 10.0 mi WSW 5.8 mph - N/A   Mostly Cloudy
8:55 AM 48.7 °F - 42.6 °F 79% 29.79 in 10.0 mi WSW 5.8 mph - N/A   Overcast
9:15 AM 49.3 °F - 42.8 °F 78% 29.80 in 10.0 mi SW 5.8 mph - N/A   Overcast
9:35 AM 49.5 °F - 43.2 °F 79% 29.81 in 10.0 mi SW 4.6 mph - N/A   Overcast
9:55 AM 49.8 °F - 43.5 °F 79% 29.81 in 10.0 mi SW 4.6 mph - N/A   Overcast
10:15 AM 50.0 °F - 43.0 °F 77% 29.81 in 10.0 mi WSW 3.5 mph - N/A   Overcast
10:35 AM 50.9 °F - 42.8 °F 74% 29.81 in 10.0 mi WSW 4.6 mph - N/A   Overcast
10:55 AM 51.1 °F - 42.1 °F 71% 29.81 in 10.0 mi Calm Calm - N/A   Overcast
11:15 AM 52.2 °F - 42.3 °F 69% 29.81 in 10.0 mi Calm Calm - N/A   Overcast
11:55 AM 52.3 °F - 42.3 °F 69% 29.82 in 10.0 mi WSW 6.9 mph - N/A   Overcast
12:15 PM 51.8 °F - 43.7 °F 74% 29.82 in 7.0 mi West 5.8 mph - N/A Rain Rain
12:35 PM 52.0 °F - 44.6 °F 76% 29.82 in 10.0 mi WSW 8.1 mph - 0.01 in Rain Light Rain
12:55 PM 52.2 °F - 47.3 °F 83% 29.82 in 7.0 mi WSW 9.2 mph - 0.01 in Rain Light Rain
1:15 PM 52.2 °F - 49.5 °F 91% 29.82 in 5.0 mi WSW 8.1 mph - 0.01 in Rain Rain
1:35 PM 51.8 °F - 49.5 °F 92% 29.82 in 5.0 mi West 8.1 mph - 0.02 in Rain , Thunderstorm Light Thunderstorms and Rain
1:55 PM 51.8 °F - 47.1 °F 84% 29.81 in 10.0 mi WSW 6.9 mph - 0.02 in Rain Light Rain
2:15 PM 52.9 °F - 48.2 °F 84% 29.81 in 10.0 mi WSW 4.6 mph - N/A   Overcast
2:35 PM 53.6 °F - 47.3 °F 79% 29.81 in 10.0 mi West 5.8 mph - N/A Thunderstorm Overcast
2:55 PM 55.6 °F - 45.9 °F 70% 29.81 in 10.0 mi NW 9.2 mph 17.3 mph N/A Thunderstorm Overcast
3:15 PM 55.2 °F - 42.6 °F 63% 29.81 in 10.0 mi NNW 10.4 mph - N/A Rain , Thunderstorm Light Thunderstorms and Rain
3:35 PM 52.3 °F - 41.7 °F 67% 29.83 in 10.0 mi NNW 10.4 mph 21.9 mph 0.01 in Rain Rain
3:50 PM 50.9 °F - 43.0 °F 74% 29.83 in 10.0 mi North 9.2 mph - 0.01 in Rain Light Rain
4:15 PM 52.0 °F - 42.8 °F 71% 29.83 in 10.0 mi Calm Calm - N/A Thunderstorm Overcast
4:35 PM 53.1 °F - 43.7 °F 71% 29.83 in 10.0 mi NE 5.8 mph - N/A   Overcast
4:55 PM 53.6 °F - 41.9 °F 65% 29.83 in 10.0 mi Calm Calm - N/A   Overcast
5:15 PM 54.9 °F - 41.7 °F 61% 29.83 in 10.0 mi Calm Calm - N/A   Overcast
5:35 PM 54.9 °F - 41.9 °F 62% 29.84 in 10.0 mi Calm Calm - N/A   Mostly Cloudy
5:55 PM 54.9 °F - 41.2 °F 60% 29.85 in 10.0 mi Calm Calm - N/A   Scattered Clouds
6:15 PM 55.8 °F - 41.5 °F 59% 29.85 in 10.0 mi Calm Calm - N/A   Clear
6:35 PM 56.1 °F - 41.7 °F 58% 29.86 in 10.0 mi Calm Calm - N/A   Scattered Clouds
6:55 PM 55.8 °F - 41.5 °F 59% 29.86 in 10.0 mi Calm Calm - N/A   Scattered Clouds
7:15 PM 55.4 °F - 41.5 °F 60% 29.87 in 10.0 mi Calm Calm - N/A   Clear
7:35 PM 52.2 °F - 43.3 °F 72% 29.87 in 10.0 mi Calm Calm - N/A   Clear
7:55 PM 50.5 °F - 42.8 °F 75% 29.88 in 10.0 mi Calm Calm - N/A   Clear
8:15 PM 48.9 °F - 45.9 °F 89% 29.89 in 10.0 mi Calm Calm - N/A   Clear
8:35 PM 47.7 °F - 45.7 °F 93% 29.91 in 10.0 mi Calm Calm - N/A   Clear
8:55 PM 45.9 °F - 44.1 °F 93% 29.92 in 10.0 mi Calm Calm - N/A   Clear
9:15 PM 46.4 °F - 45.0 °F 95% 29.93 in 10.0 mi Calm Calm - N/A   Clear
9:35 PM 45.0 °F 42.6 °F 43.9 °F 96% 29.93 in 10.0 mi WNW 4.6 mph - N/A   Clear
9:55 PM 50.0 °F - 36.0 °F 59% 29.94 in 10.0 mi WNW 5.8 mph - N/A   Clear
10:15 PM 50.4 °F - 34.7 °F 55% 29.94 in 10.0 mi WNW 5.8 mph - N/A   Clear
10:35 PM 50.4 °F - 34.2 °F 54% 29.95 in 10.0 mi WNW 8.1 mph - N/A   Clear
10:55 PM 50.9 °F - 33.4 °F 51% 29.95 in 10.0 mi WNW 5.8 mph - N/A   Clear
11:15 PM 50.5 °F - 32.9 °F 51% 29.96 in 10.0 mi West 4.6 mph - N/A   Clear
11:35 PM 50.2 °F - 32.7 °F 51% 29.96 in 10.0 mi West 4.6 mph - N/A   Clear
11:55 PM 49.5 °F - 33.1 °F 53% 29.97 in 10.0 mi West 5.8 mph - N/A   Clear